Terug naar catalogus

CZ-6A DEB

ActiefPO
NORAD 54592·DEBRIS·🇨🇳 China

Gelanceerd Nov 11, 2022 vanaf Taiyuan Satellite Launch Center

Loading…

Volgende Passages (komende 24 uur)

TLE

VersSource: Space-Track

Epoch: Sep 14, 2026, 14:59 UTC

1 54592U 22151MS  26257.62481503  .00018668  00000-0  19679-2 0  9990
2 54592  98.5111 317.9160 0035937 341.9378  18.0558 14.88902056203387

Volg CZ-6A DEB in realtime met AllMySat

Download on the App Store